User: anonymous   Login
Location: Unspecified
(0.0000°N, 0.0000°E)
Time: 01:28:19
(UTC+02:00)
Language:

YAOGAN 3 - Orbit

View from above orbital plane
View from above orbital plane
View from above satellite
View from above satellite

Ground track
Ground track

The orbit data is extracted from the following two-line orbital elements,

1 32289U 07055A   18109.87203782  .00000170  00000-0  28939-4 0  9990
2 32289  98.0061 116.2129 0001865  73.6922 286.4479 14.80889061564124
Epoch (UTC): 19 April 2018 20:55:44
Eccentricity: 0.0001865
inclination: 98.0061°
perigee height: 625 km
apogee height: 628 km
right ascension of ascending node: 116.2129°
argument of perigee: 73.6922°
revolutions per day: 14.80889061
mean anomaly at epoch: 286.4479°
orbit number at epoch: 56412

The dashed part of the orbit path shows where the satellite is in the earth's shadow,  

DLR